Погода Бельцы

Погода Бельцы : погода сейчас, прогноз погоды и архив. Всё, что Вы хотите узнать о погоде Бельцы!

Поиск расширенной информации на нашем сайте:

Другие новости

Новости СМИ2

Главная страница сайта

Новости сайта

03.07.2017

Напоминаем, что на нашем специализированном сайте Метеоцентр.Азия вы можете получить высокодетализированные автоматические прогнозы погоды по пунктам России, СНГ и мира в авиационном формате (включающие направление и скорость ветра, видимость, явления погоды, количество и форму облачности, нижнюю и верхнюю границу облачности).


Погода Бельцы - сегодня

Время (UTC), дата Ветер
(°,м/с) 
Видим.   Явления Облачность Т
(°С)
Тd
(°С)
f(%) Тe
(°С)
Pmin
(гПа)
dP
(гПа)
Po
(мм)
O2
(г/м3)
Тmin Tmax R s Состояние
почвы
15 13.01.18 030 (СВ) 10 км  слаб. ливневой снег  9/9 600 м кучево-дожд. 
[Cb cap]
-2.4 -4.7 84 -2  1039.2  0.4  764  311           
18 13.01.18 030 (СВ) 10 км  в посл. час ливневой снег  10/10 300 м кучево-дожд. 
[Cb cap]
-2.9 -6.2 78 -4  1039.6  0.4  764  312    -0.6  0.3     
21 13.01.18 040 (СВ) 10 км    10/8 600 м кучево-дожд., средняя 
[Cb cap|Ac trans]
-3.6 -8.5 69 -3  1039.6  -0.1  764  313           
00 14.01.18 030 (СВ) 10 км  слаб. ливневой снег  10/10 300 м кучево-дожд. 
[Cb cap]
-5 -6.7 88 -5  1038.9  -0.8  764  314           
03 14.01.18 тихо ()   10 км  {ливн. осадки}  8/6 600 м кучево-дожд., средняя 
[Cb cap|Ac trans]
-5.9 -11.2 66 -6  1038.5  -0.4  763  315  -5.9         
06 14.01.18 тихо ()   10 км  слаб. ливневой снег  9/9 600 м кучево-дожд. 
[Cb cap]
-6.3 -8.4 85 -6  1038.7  0.1  763  316  -6.3    0.5     
09 14.01.18 030 (СВ) 10 км  слаб. ливневой снег  10/10 300 м кучево-дожд. 
[Cb cap]
-6.5 -8 89 -6  1039  0.3  764  316           
12 14.01.18 тихо ()   10 км  {ливн. осадки}  8/8 600 м кучево-дожд. 
[Cb cap]
-5.8 -10.8 68 -6  1037.8  -1.1  763  315           
15 14.01.18 тихо ()   10 км  слаб. ливневой снег  10/8 600 м кучево-дожд., средняя 
[Cb cap|Ac trans]
-6.4 -9.6 78 -6  1037.7  -0.2  763  316           
18 14.01.18 030 (СВ) 10 км  слаб. ливневой снег  9/9 600 м кучево-дожд. 
[Cb cap]
-6.9 -10.7 74 -7  1038.2  0.5  763  316    -5.5  0.9     
21 14.01.18 030 (СВ) 10 км  слаб. ливневой снег  10/10 300 м кучево-дожд. 
[Cb cap]
-7.8 -11.3 76 -8  1038.7  0.4  763  318           
00 15.01.18 тихо ()   10 км  слаб. ливневой снег  10/10 300 м кучево-дожд. 
[Cb cap]
-8.2 -10.9 81 -8  1037.9  -0.8  763  318           
03 15.01.18 тихо ()   10 км  слаб. ливневой снег  9/9 600 м кучево-дожд. 
[Cb cap]
-8.4 -10.9 82 -8  1036.9  -1  762  318           
06 15.01.18 тихо ()   10 км  {ливн. осадки}  9/9 600 м кучево-дожд. 
[Cb cap]
-8 -10.4 83 -8  1036.4  -0.5  762  317  -0.8    0.0     
09 15.01.18 тихо ()   10 км  в посл. час снег  8/6 600 м средняя 
[Sc|Ac trans]
-7.4 -9.9 82 -7  1036.5  0.2  762  317           
12 15.01.18 тихо ()   10 км  {снег}  6/6 600 м кучево-дожд. 
[Cb cap]
-5.9 -10.5 70 -6  1033.9  -2.4  760  314           
15 15.01.18 тихо ()   10 км    4/4 600 м 
[Sc diur, vesp]
-7.6 -10.1 82 -8  1032.6  -1.4  759  316           
18 15.01.18 тихо ()   10 км    ясно 
-10.3 -11.6 90 -10  1031.9  -0.9  758  319    -5.2  0.0     
21 15.01.18 тихо ()   10 км    ясно 
-12.4 -13.4 92 -12  1030.7  -1.4  757  321           
00 16.01.18 тихо ()   4000 м  дымка  4/4 600 м 
[Sc]
-11.3 -12.2 93 -11  1028.4  -2.2  756  319           
03 16.01.18 тихо ()   4000 м  дымка  8/5 600 м средняя 
[Sc|Ac trans]
-11.1 -11.9 94 -11  1025.7  -2.6  754  318  -13.2         
06 16.01.18 тихо ()   4000 м  слаб. ливневой снег  10/8 600 м кучево-дожд., средняя 
[Cb cap|Ac trans]
-9.5 -10.4 93 -10  1023.3  -2.2  752  315  -13.2    0.0  <0.5  равномерный
сухой снег
100% 
09 16.01.18 тихо ()   10 км  в посл. час ливневой снег  10/5 600 м средняя 
[Sc diur, vesp|Ac trans]
-7.4 -9 88 -7  1021.1  -2  750  312           
12 16.01.18 тихо ()   10 км  {ливн. осадки}  8/5 600 м средняя 
[Sc|Ac trans]
-5.1 -7.8 81 -5  1016.6  -4.2  747  308           
15 16.01.18 100 (В) 10 км    10/8 600 м кучево-дожд., средняя 
[Cb cap|Ac trans]
-4.6 -5.8 91 -4  1013.4  -3.1  745  306           
Время (UTC), дата Ветер
(°,м/с) 
Видим.   Явления Облачность Т
(°С)
Тd
(°С)
f(%) Тe
(°С)
Pmin
(гПа)
dP
(гПа)
Po
(мм)
O2
(г/м3)
Тmin Tmax R s Состояние
почвы

Для получения пояснительной информации подведите курсор к названию столбца.

ПОГОДА Бельцы - архив

Всё, что Вы хотите узнать о погоде Бельцы - удобно и подробно!

Выберите нужную дату (начиная с 1 января 2015* года) и нажмите кнопку "Найти".
Будут отображены архивные сводки погоды по пункту Бельцы, начиная с указанной даты.


Отображать данные в формате CSV (для использования в таблицах Excel)


Внимание! Наш архив погоды предназначен исключительно для личного некоммерческого использования в познавательных целях. Если Вам необходимы официальные справки о состоянии погоды (для производственных, юридических, коммерческих и т.п. целей), обращайтесь в органы Росгидромета.

*Примечание: данная дата относится к архиву по метеостанциям СССР (Россия, СНГ, Балтия).
Архив по метеостанциям Зарубежной Европы и Азии (кроме Китая) хранится 10 дней, по другим регионам земного шара (Китай, Африка, Америка, Австралия, Океания) - 1 день.

Бельцы - район местоположения метеостанции


Название, широта, долгота, высота метеостанции:
Бельцы 47.8°ш. 27.9°д. 102 м над ур. моря [Молдавия]

Дополнительная информация

В oтличие oт бoльшинства пoгoдных сайтoв мы публикуем пoдрoбную метеoинфoрмацию в детальнoм прoфессиoнальнoм фoрмате.

Характеристики температуры и влажнoсти вoздуха измеряются на высoте 2 м в тени вдали oт зданий и деревьев.
Скoрoсть ветра измеряется на высoте 10 м (на урoвне рoста челoвека скoрoсть ветра ниже в 1.5-2 раза). Если метеoстанция нахoдится в гoрoде или в лесу, тo скoрoсть ветра занижена на 2-4 м/с пo сравнению с oткрытым местoм. Скoрoсть ветра над акватoриями крупных рек и oзёр, а также на вершинах хoлмoв на 2-5 м/с выше, чем в oбычных услoвиях.
Атмoсфернoе давление в разных тoчках местнoсти мoжет значительнo oтличаться oт давления на метеoстанции, в зависимoсти oт услoвий рельефа (при пoдъёме на 10 м давление пoнижается примернo на 1 мм рт.ст.).